Tracking 32414 objects as of 4-Dec-2025
HD Live streaming from Space Station
objects crossing your sky now

COSMOS 1766

Track COSMOS 1766 now!
10-day predictions
COSMOS 1766 is classified as:


NORAD ID: 16881
Int'l Code: 1986-055A
Perigee: 432.0 km
Apogee: 441.8 km
Inclination: 82.5 °
Period: 93.2 minutes
Semi major axis: 6807 km
RCS: 9.3716 m2 (large)
Launch date: July 28, 1986
Source: Commonwealth of Independent States (former USSR) (CIS)
Launch site: PLESETSK MISSILE AND SPACE COMPLEX (PKMTR)
Your satellite tracking list
Your tracking list is empty




NASA's NSSDC Master Catalog

Two Line Element Set (TLE):
1 16881U 86055A   25338.64016188  .00038775  00000-0  80335-3 0  9995
2 16881  82.4915 207.5095 0007236 147.0205 213.1496 15.45549074128900
Source of the keplerian elements: AFSPC